Probability
0 0 1 1 1 0 0 1 1 2 2 3 4 6 9 11 12 16 23 25 21 20 22 23 24 25 27 29 32 33 34 34 32 30 29 30 31 29 24 20 16 15 12 9
0 0 0 0 0 0 0 1 2 2 2 3 5 8 11 12 13 17 22 23 21 20 22 23 23 24 26 29 31 32 34 34 32 29 27 28 30 29 25 20 16 13 10 7
0 0 0 0 0 0 0 1 1 1 1 3 7 10 12 13 14 18 21 23 22 22 23 23 23 23 25 28 30 31 33 33 31 28 26 26 27 28 27 23 18 13 8 4
0 0 0 0 0 0 0 0 0 0 1 5 9 11 11 13 16 18 20 23 25 23 23 24 23 22 24 27 28 29 30 30 29 27 25 23 23 25 26 25 19 13 8 4
0 0 0 0 0 0 0 0 1 2 4 8 11 11 12 13 16 18 20 23 26 25 24 24 23 21 23 26 25 26 27 27 26 26 25 23 21 21 22 22 17 12 9 7
0 0 0 0 0 0 1 1 3 5 9 12 14 14 13 13 15 18 20 22 24 26 24 21 21 22 24 26 25 26 26 25 23 24 24 23 20 18 17 17 14 11 9 8
0 0 0 0 1 1 3 5 6 9 11 14 16 16 14 13 14 17 20 22 23 26 25 23 22 25 27 28 28 29 26 24 23 22 22 21 19 17 14 12 11 9 7 5
0 0 1 1 1 2 5 7 8 8 10 12 14 14 13 12 14 17 20 23 24 26 27 27 27 28 30 30 31 31 28 24 22 20 18 16 14 12 10 8 8 7 5 4
0 0 1 1 1 2 4 5 5 4 6 9 11 11 10 11 14 17 20 23 24 25 27 29 31 30 29 30 31 30 27 22 19 16 12 10 8 7 6 5 4 4 4 3
1 1 2 3 3 3 3 3 3 3 5 8 8 8 10 12 15 17 20 22 23 24 26 28 29 27 25 26 27 26 23 19 15 12 9 7 6 4 3 2 2 2 3 3
2 3 3 4 4 4 4 4 3 4 5 7 6 7 11 16 17 18 20 21 21 22 24 25 24 21 21 22 22 21 19 17 13 9 6 5 4 3 2 1 1 1 2 2
3 3 3 3 4 4 4 4 5 5 5 5 6 7 12 17 20 20 21 20 19 19 20 20 19 17 18 20 19 17 15 13 10 7 6 6 5 3 2 1 0 0 1 1
3 3 3 3 3 3 3 4 6 6 5 5 7 9 12 16 19 21 22 20 17 15 15 15 15 14 15 16 15 14 11 9 7 6 7 9 8 6 3 2 1 0 0 0
3 3 3 3 3 3 4 5 6 6 6 6 8 11 12 14 16 18 20 18 15 14 13 13 12 11 12 12 12 11 9 7 6 7 8 9 8 6 4 2 1 0 0 0
3 3 3 3 3 4 5 6 6 6 6 8 10 11 12 12 13 14 15 15 14 14 13 12 10 9 9 10 10 10 9 7 6 6 6 6 6 5 3 1 1 0 0 0
3 3 3 3 3 5 6 6 5 5 6 8 8 9 9 10 10 12 14 14 13 12 11 10 8 7 8 9 9 9 8 5 5 5 6 5 4 3 2 1 0 0 0 0
3 3 3 3 4 6 7 6 4 4 5 6 5 4 4 5 7 10 13 14 11 8 7 6 6 7 8 8 7 6 5 4 4 5 5 4 3 2 2 1 0 0 0 0
3 3 3 4 5 6 7 6 4 3 4 3 2 1 1 3 5 7 9 10 8 7 5 4 4 5 5 4 3 2 2 3 4 5 4 4 3 2 1 1 1 0 1 1
3 3 4 5 5 5 6 6 4 3 2 1 1 0 1 2 3 5 6 7 7 6 5 3 2 3 3 2 1 0 1 2 4 4 4 4 4 3 2 3 3 2 2 2
2 3 3 4 4 4 5 5 4 2 1 0 0 1 2 3 3 4 5 5 5 4 3 2 1 3 3 2 1 0 1 2 3 3 4 5 6 6 5 5 4 3 3 4
1 1 2 2 2 3 4 4 3 2 1 1 1 2 3 3 2 2 2 3 2 1 1 1 1 2 2 2 1 0 1 3 4 3 4 6 7 7 7 6 5 4 5 4
0 0 1 1 1 2 3 4 4 3 3 3 3 3 3 2 1 0 0 0 0 0 1 1 1 1 1 1 1 1 2 4 5 4 5 6 8 8 7 5 4 5 5 4
0 0 0 1 2 3 3 4 5 6 6 5 4 3 3 2 1 1 1 0 0 0 0 1 1 0 0 1 2 3 3 4 5 5 5 6 7 8 7 5 5 6 6 4
0 0 2 3 3 3 3 4 4 6 7 6 5 4 3 2 2 2 2 0 0 0 0 1 1 0 0 1 2 2 2 2 3 4 4 4 6 8 8 6 6 6 6 5
1 2 3 4 4 3 3 3 3 4 4 4 3 3 3 1 1 1 1 0 0 0 0 0 0 0 0 0 1 1 1 1 2 3 3 4 5 7 7 7 6 7 6 5
2 3 4 4 3 3 3 3 3 2 1 1 1 2 2 1 0 0 0 0 0 1 1 1 1 0 0 0 0 0 0 1 2 3 4 4 5 6 6 6 6 7 6 5
3 3 3 3 3 3 3 3 3 1 1 1 1 1 1 0 0 0 0 0 1 2 2 2 1 0 0 0 0 0 1 2 3 3 4 4 5 6 6 6 6 6 6 4
Wind_Speed
8 8 8 9 11 11 13 13 12 10 9 5 3 2 2 2 2 2 2 2 3 3 3 3 3 2 3 3 4 5 5 5 5 5 4 4 4 3 3 3 3 2 2 2
8 8 8 10 11 12 12 11 12 11 9 4 3 2 2 2 2 2 2 2 2 3 3 3 3 3 3 3 4 4 5 5 5 4 4 4 4 3 3 2 2 2 2 2
8 7 9 11 10 11 10 9 10 10 7 3 3 3 3 2 2 2 2 2 2 2 3 3 3 3 3 3 4 5 4 4 5 4 4 4 3 3 3 2 2 1 2 2
6 7 10 1 0 4 7 7 7 7 5 4 4 3 2 2 2 1 1 1 2 2 3 3 3 4 4 4 4 4 4 4 4 4 4 4 3 3 2 2 2 2 2 1
6 9 8 4 3 4 6 5 4 5 4 3 3 3 3 0 1 1 1 1 2 2 3 3 4 4 4 4 4 4 4 4 3 3 4 4 3 3 2 2 2 2 2 2
8 8 8 1 2 2 5 6 1 3 3 3 3 6 1 1 2 2 1 1 1 2 3 3 4 4 4 4 5 4 4 3 3 3 3 3 3 2 2 2 2 2 1 1
10 9 6 3 2 3 7 1 4 3 3 4 4 4 3 2 2 2 1 1 2 2 3 3 4 4 5 4 4 4 4 3 3 2 2 2 2 2 2 2 2 2 1 1
8 9 5 3 1 3 4 5 4 4 4 4 4 4 3 2 2 1 1 1 2 2 2 3 4 5 5 4 3 3 4 4 3 2 2 2 2 2 2 2 2 2 2 2
4 3 3 2 3 4 5 5 5 5 5 5 5 5 4 3 2 2 2 2 2 3 3 2 3 3 4 4 4 4 4 4 3 2 1 1 2 2 2 3 2 2 2 2
5 5 4 4 5 4 4 5 5 5 6 5 5 5 3 2 1 2 2 3 3 3 3 3 3 3 3 4 4 4 3 3 3 2 2 1 1 2 2 1 2 2 2 2
7 6 5 4 4 5 5 6 6 5 5 4 4 4 3 2 1 2 2 2 3 3 3 3 3 3 3 4 4 4 3 3 3 3 2 1 1 1 1 1 1 2 2 2
6 4 6 5 6 7 7 6 6 6 5 4 3 2 2 2 1 1 2 3 3 3 3 4 4 3 3 4 4 4 3 3 3 2 2 2 2 1 2 1 2 1 2 3
6 6 6 7 7 7 7 7 6 5 5 3 2 2 2 1 1 1 1 2 3 3 3 3 4 4 4 4 4 4 3 3 2 2 2 3 2 2 2 2 3 2 1 1
5 6 7 6 6 5 6 5 4 4 3 2 1 1 1 1 1 1 1 2 3 3 3 3 3 3 3 4 4 4 4 4 3 3 3 3 3 3 2 2 2 2 3 4
5 5 6 6 6 5 4 3 3 2 1 0 0 1 1 1 1 1 2 2 2 2 2 2 2 2 2 3 4 4 4 3 3 3 3 3 3 3 2 3 2 2 1 3
5 5 5 5 5 4 3 3 2 1 0 0 0 1 1 1 1 1 2 2 2 2 1 1 1 1 2 2 3 3 3 3 3 3 3 3 2 2 2 2 2 2 2 1
5 4 4 5 4 4 3 2 2 1 1 1 0 1 1 1 1 1 1 1 2 1 1 1 1 1 1 2 3 3 3 4 5 4 3 3 2 3 3 3 3 3 2 1
4 4 4 4 4 3 2 2 2 1 1 1 1 1 1 1 1 1 1 1 2 1 1 1 1 1 2 2 2 2 3 3 3 3 3 2 2 3 3 3 3 4 3 2
4 4 3 3 3 2 2 2 2 2 2 2 2 2 1 1 1 1 1 1 1 1 1 1 1 0 0 0 1 2 3 3 3 3 3 3 3 3 3 3 3 3 3 2
3 3 3 2 2 2 2 2 2 2 2 2 3 2 2 1 1 1 1 0 1 1 1 1 0 1 0 1 2 2 2 2 2 3 3 3 3 3 3 3 3 3 3 3
2 2 2 1 1 1 1 2 2 2 2 2 2 2 2 1 1 1 0 0 1 1 0 1 1 0 0 1 2 2 2 2 2 3 3 3 2 3 3 3 3 3 3 3
1 1 1 1 1 0 1 1 2 2 2 2 2 2 2 2 1 1 1 1 1 1 0 0 0 1 1 2 1 2 1 1 2 2 2 2 2 3 3 3 3 3 3 3
1 0 0 0 0 2 2 2 2 2 2 2 2 1 1 0 0 0 1 1 1 1 1 1 2 2 1 2 1 1 2 2 2 2 2 2 2 2 2 3 3 3 3 3
1 0 1 1 2 3 2 2 2 2 2 2 1 1 1 1 1 1 1 2 1 1 1 1 1 1 3 2 2 2 2 2 2 2 2 2 2 2 2 3 3 3 3 4
1 1 2 2 2 2 2 2 3 3 2 2 2 1 0 0 1 1 1 1 1 0 0 1 3 3 2 1 1 2 2 2 2 2 2 3 2 2 2 2 3 3 3 3
1 1 1 0 1 1 1 2 2 2 2 1 1 1 1 1 1 1 1 1 0 0 0 0 1 2 2 1 1 1 2 1 1 2 2 2 2 2 2 3 4 3 3 3
2 1 1 1 1 1 1 1 1 1 1 1 1 1 1 1 0 0 0 0 0 0 0 1 1 1 1 1 1 1 1 1 1 2 2 2 2 2 2 3 3 3 3 3
Wind_Direction
277 285 267 255 245 239 239 249 256 253 257 261 256 252 239 226 203 194 188 188 182 186 172 165 159 157 153 160 158 163 170 167 164 168 175 178 179 180 187 195 195 197 209 215
258 258 257 257 250 244 243 247 253 257 261 264 262 257 239 217 191 200 209 216 209 202 191 186 179 172 158 155 157 164 171 166 161 166 172 172 175 174 179 186 190 193 202 205
251 251 257 244 240 237 236 240 251 257 266 264 248 253 253 242 221 216 215 216 218 218 209 198 185 177 170 167 161 161 164 159 159 167 171 171 172 168 172 175 175 188 196 204
256 251 245 231 23 254 247 244 254 266 275 264 265 265 255 259 260 241 227 223 226 222 203 192 179 177 174 163 158 159 159 158 159 168 170 166 169 169 176 179 180 193 203 198
246 247 250 220 206 249 251 244 268 271 277 281 279 229 209 63 333 297 252 244 237 229 202 180 179 176 170 165 158 161 159 161 167 170 167 165 169 172 175 183 191 205 204 207
241 250 249 196 70 310 259 234 323 283 270 276 264 244 197 20 328 309 269 228 218 203 186 176 180 174 174 172 163 165 167 168 162 171 170 165 166 181 186 198 208 215 199 213
242 246 256 39 5 231 236 355 22 327 303 285 281 310 339 322 292 291 269 209 179 184 182 177 179 177 181 178 175 168 161 153 147 152 158 161 165 178 193 211 215 219 188 200
235 241 241 54 255 266 338 349 324 320 313 305 300 302 305 307 285 234 215 198 177 175 172 170 177 182 181 177 167 150 142 139 139 146 161 146 163 189 196 199 203 205 194 209
249 271 26 345 317 319 313 307 310 307 303 296 292 289 290 282 240 200 196 192 173 166 155 158 172 175 168 155 149 143 141 137 135 140 152 166 183 192 203 205 221 224 217 218
253 258 279 296 301 308 310 302 304 302 297 288 284 285 287 278 223 199 197 190 170 162 157 157 165 157 145 144 149 151 152 146 141 145 167 178 216 224 231 227 232 235 235 240
251 267 278 279 311 325 324 315 309 307 299 288 281 277 276 272 245 227 196 180 165 157 161 161 159 152 146 146 152 161 163 161 162 166 165 186 219 296 270 310 318 291 286 271
269 293 288 302 322 319 311 310 307 303 300 291 269 252 257 261 259 230 191 168 157 159 160 157 158 157 156 156 157 164 174 173 180 185 175 197 199 187 87 79 73 55 353 321
281 297 302 302 304 308 307 311 310 303 293 280 261 225 229 235 213 186 163 155 156 160 157 155 159 163 166 168 170 179 185 183 194 197 193 206 208 216 199 160 168 186 204 259
274 283 287 291 297 306 305 305 304 297 285 258 244 215 194 173 140 120 120 132 143 147 146 151 158 167 172 172 175 184 194 184 197 208 211 216 216 219 222 232 216 200 190 204
272 267 272 285 292 294 289 284 285 295 309 31 134 140 143 144 124 106 104 118 122 125 128 139 152 161 169 171 177 191 204 199 201 214 218 219 221 224 225 234 245 249 236 178
272 266 265 270 278 282 271 253 242 253 217 126 107 104 115 117 111 104 114 135 129 117 109 130 157 166 173 180 190 196 197 197 214 222 222 220 220 229 237 244 254 264 267 277
267 268 271 276 279 278 267 257 248 204 170 178 148 103 108 100 99 102 92 101 107 97 97 133 155 176 192 198 207 204 197 185 191 216 227 226 226 233 239 247 252 259 263 288
265 268 275 282 282 280 270 250 241 219 197 185 158 148 153 133 113 84 82 106 118 99 70 72 105 177 181 195 215 223 215 204 200 214 223 230 238 238 240 240 244 253 258 222
268 277 289 295 292 276 249 222 213 209 202 184 170 162 159 148 123 105 118 132 119 87 42 42 67 145 152 194 233 220 223 217 209 210 218 216 233 243 245 247 249 253 257 259
265 274 278 278 272 264 246 218 199 195 201 194 168 157 143 132 131 116 110 115 19 9 37 39 107 97 284 248 256 232 227 229 225 217 221 227 230 238 245 251 258 262 263 264
256 264 274 279 283 278 233 206 198 191 187 180 172 167 151 134 129 127 159 359 43 31 21 132 177 140 280 324 253 247 238 230 234 236 234 230 230 239 250 257 260 260 262 264
269 277 298 319 336 33 121 150 163 163 159 157 156 145 136 135 141 139 96 340 342 42 284 252 307 52 349 296 250 259 263 256 255 254 249 247 244 245 251 261 266 269 270 272
281 286 322 13 53 97 102 112 122 124 132 144 144 145 152 152 238 65 78 48 358 30 336 1 34 60 298 257 263 261 270 271 272 268 259 253 253 258 262 265 271 275 277 276
282 155 136 133 120 110 102 95 99 106 117 123 123 141 201 191 132 53 51 84 64 31 340 48 85 155 243 248 253 253 259 260 263 270 270 262 258 262 266 272 277 282 285 285
53 111 131 139 139 130 123 126 125 122 117 111 116 124 159 51 50 48 56 57 65 208 212 148 169 201 224 246 260 274 275 285 297 296 287 286 284 277 271 273 280 285 289 292
105 118 109 142 164 165 155 147 134 128 126 123 110 98 89 87 102 150 141 114 104 176 268 234 161 196 227 235 239 263 285 285 267 273 285 289 294 295 294 293 294 295 295 293
146 155 168 172 164 156 147 144 148 146 132 116 97 89 98 108 105 72 32 324 232 347 331 306 280 241 247 255 244 231 276 300 307 305 304 307 307 304 307 308 308 307 301 296